Weather History for Jonesboro, AR

Change the Weather History Date:

Friday, March 29, 2013

  Actual Average Record
Temperature  
Mean Temperature 51 °F 54 °F  
Max Temperature 59 °F 65 °F 85 °F (1963)
Min Temperature 43 °F 44 °F 27 °F (1921)
Degree Days  
Heating Degree Days 14 11  
Month to date heating degree days 591 443  
Since 1 July heating degree days 3219 3399  
Cooling Degree Days 0 0  
Month to date cooling degree days 0 0  
Year to date cooling degree days 0 0  
Growing Degree Days 2 (Base 50)    
Moisture  
Dew Point 46 °F    
Average Humidity 82    
Maximum Humidity 100    
Minimum Humidity 64    
Precipitation  
Precipitation 0.32 in 0.16 in 5.00 in (1975)
Month to date precipitation 1.65 4.19  
Year to date precipitation 11.44 11.34  
Snow  
Snow 0.00 in 0.00 in 3.00 in (1991)
Month to date snowfall 4.0 0.7  
Since 1 July snowfall 11.0 4.8  
Snow Depth 0.00 in    
Sea Level Pressure  
Sea Level Pressure 30.20 in    
Wind  
Wind Speed 4 mph (ESE)    
Max Wind Speed 15 mph    
Max Gust Speed 20 mph    
Visibility 7 miles    
Events Fog , Rain    
T = Trace of Precipitation, MM = Missing Value Source: NWS Daily Summary

Daily Weather History Graph

Daily Weather History Graph

Search for Another Location

Airport:

Trip Planner

Search our weather history database for the weather conditions in past years. The results will help you decide how hot, cold, wet, or windy it might be!

Date:

Astronomy

Mar. 29, 2013 Rise Set
Actual Time 6:52 AM CDT 7:22 PM CDT
Civil Twilight 6:27 AM CDT 7:47 PM CDT
Nautical Twilight 5:57 AM CDT 8:18 PM CDT
Astronomical Twilight 5:26 AM CDT 8:48 PM CDT
Moon 10:15 PM CDT (3/29) 8:07 AM CDT (3/29)
Length of Visible Light 13h 20m
Length of Day
12h 29m
Waning Gibbous, 93% of the Moon is Illuminated
Mar 29
Waning Gibbous
Apr 2
Last Quarter
Apr 10
New
Apr 18
First Quarter
Apr 25
Full

Hourly Weather History & Observations

Time (CDT) Temp. Windchill Dew Point Humidity Pressure Visibility Wind Dir Wind Speed Gust Speed Precip Events Conditions
12:53 AM 51.1 °F - 42.1 °F 71% 30.22 in 10.0 mi SE 3.5 mph - N/A   Mostly Cloudy
1:53 AM 53.1 °F - 41.0 °F 64% 30.21 in 10.0 mi South 3.5 mph - N/A   Partly Cloudy
2:53 AM 52.0 °F - 41.0 °F 66% 30.19 in 10.0 mi Calm Calm - N/A   Partly Cloudy
3:53 AM 51.1 °F - 41.0 °F 68% 30.18 in 10.0 mi South 4.6 mph - N/A   Mostly Cloudy
4:53 AM 48.0 °F - 42.1 °F 80% 30.18 in 10.0 mi Calm Calm - N/A   Overcast
5:53 AM 48.9 °F - 42.1 °F 77% 30.18 in 10.0 mi South 3.5 mph - N/A   Partly Cloudy
6:53 AM 50.0 °F - 43.0 °F 77% 30.18 in 10.0 mi South 4.6 mph - 0.00 in Rain Light Rain
7:53 AM 51.1 °F - 43.0 °F 74% 30.19 in 10.0 mi Calm Calm - 0.00 in Rain Light Rain
8:53 AM 51.1 °F - 44.1 °F 77% 30.25 in 10.0 mi NNE 4.6 mph - 0.00 in   Overcast
9:40 AM 48.2 °F - 44.6 °F 87% 30.25 in 2.5 mi NE 8.1 mph - 0.11 in Rain Rain
9:53 AM 48.0 °F - 45.0 °F 89% 30.25 in 2.5 mi ENE 8.1 mph - 0.17 in Rain Rain
10:10 AM 48.2 °F - 46.4 °F 93% 30.26 in 4.0 mi ENE 6.9 mph - 0.04 in Rain Light Rain
10:40 AM 48.2 °F - 46.4 °F 93% 30.25 in 2.0 mi ESE 5.8 mph - 0.09 in Rain Light Rain
10:53 AM 48.0 °F - 46.0 °F 93% 30.25 in 2.0 mi ESE 8.1 mph - 0.12 in Rain Rain
11:03 AM 48.2 °F - 46.4 °F 93% 30.24 in 4.0 mi ESE 5.8 mph - 0.01 in Rain Light Rain
11:53 AM 50.0 °F - 46.9 °F 89% 30.23 in 7.0 mi SE 10.4 mph - 0.03 in Rain Light Rain
12:28 PM 50.0 °F - 48.2 °F 94% 30.22 in 10.0 mi SE 8.1 mph - 0.00 in   Overcast
12:53 PM 51.1 °F - 46.9 °F 86% 30.22 in 10.0 mi ESE 3.5 mph - 0.00 in   Overcast
1:23 PM 51.8 °F - 48.2 °F 88% 30.21 in 10.0 mi East 6.9 mph - N/A   Overcast
1:53 PM 52.0 °F - 48.0 °F 86% 30.20 in 10.0 mi ENE 5.8 mph - N/A   Overcast
2:53 PM 54.0 °F - 48.9 °F 83% 30.19 in 10.0 mi East 3.5 mph - N/A   Overcast
3:53 PM 55.9 °F - 50.0 °F 80% 30.17 in 10.0 mi Calm Calm - N/A   Overcast
4:30 PM 57.2 °F - 50.0 °F 77% 30.18 in 10.0 mi Calm Calm - N/A   Scattered Clouds
4:53 PM 57.0 °F - 50.0 °F 77% 30.18 in 10.0 mi SSW 3.5 mph - N/A   Partly Cloudy
5:06 PM 57.2 °F - 51.8 °F 82% 30.18 in 10.0 mi Calm Calm - N/A   Mostly Cloudy
5:39 PM 59.0 °F - 50.0 °F 72% 30.17 in 10.0 mi ESE 3.5 mph - N/A   Scattered Clouds
5:53 PM 57.9 °F - 51.1 °F 78% 30.17 in 10.0 mi East 4.6 mph - N/A   Clear
6:53 PM 55.9 °F - 50.0 °F 80% 30.17 in 10.0 mi East 6.9 mph - N/A   Clear
7:53 PM 54.0 °F - 50.0 °F 86% 30.19 in 10.0 mi ESE 5.8 mph - N/A   Clear
8:53 PM 51.1 °F - 48.9 °F 92% 30.20 in 7.0 mi SE 3.5 mph - N/A   Clear
9:53 PM 48.9 °F - 46.9 °F 93% 30.21 in 5.0 mi ESE 3.5 mph - N/A   Clear
10:53 PM 46.9 °F - 46.0 °F 97% 30.20 in 3.0 mi Calm Calm - N/A   Clear
11:14 PM 46.4 °F 45.2 °F 46.4 °F 100% 30.20 in 2.0 mi ENE 3.5 mph - N/A   Clear
11:22 PM 46.4 °F 45.2 °F 46.4 °F 100% 30.20 in 1.5 mi NE 3.5 mph - N/A   Clear
11:38 PM 46.4 °F - 44.6 °F 93% 30.20 in 0.5 mi Calm Calm - N/A Fog Fog
11:48 PM 46.4 °F - 44.6 °F 93% 30.20 in 0.2 mi Calm Calm - N/A Fog Fog
11:53 PM 46.0 °F - 45.0 °F 96% 30.20 in 0.2 mi Calm Calm - N/A Fog Fog